Flag for Belgium Weather past 2 weeks in Liège, Belgium

Now
50 °F

Sunny.


Feels Like: 46 °F
Forecast: 48 / 61 °F
Wind: 10 mph from Southwest

Location: Bierset

Current Time: May 29, 2015 at 9:13:50 AM

Latest Report: May 29, 2015 at 8:50 AM


Visibility: 10 mi

Pressure: 29.89 "Hg

Humidity: 71%

Dew point: 41 °F

Location of LiègeLocation

Historic Weather in Liège — Graph

°F

Liège temperature yesterday

Maximum temperature yesterday: 61 °F (at 11:50 AM)
Minimum temperature yesterday: 52 °F (at 11:50 PM)
Average temperature yesterday: 57 °F

Past Weeks' High & Low Weather Summary

 TemperatureHumidityPressure
High66 °F (May 18, 2:50 PM)94% (May 14, 9:20 PM)30.36 "Hg (May 14, 9:20 PM)
Low39 °F (May 21, 2:50 AM)40% (May 22, 4:20 PM)29.68 "Hg (May 18, 6:50 PM)
Average54 °F70%30.08 "Hg
* Reported May 14 7:20 AM — May 29 7:50 AM, Liège, Weather by CustomWeather, © 2015

Note: Actual official high and low records may vary slightly from our data, if they occured in-between our weather recording intervals... More about our weather records

Advertising

Liège weather history for previous 24 hours

 ConditionsComfort  
Time TempWeatherWind HumidityBarometerVisibility
7:50 AM
Fri, May 29
48 °FSunny.10 mph76%29.89 "Hg10 mi
7:20 AM46 °FSunny.8 mph82%29.89 "Hg10 mi
6:50 AM46 °FPassing clouds.8 mph82%29.89 "HgN/A
6:20 AM46 °FPassing clouds.6 mph82%29.92 "HgN/A
5:50 AM46 °FClear.12 mph82%29.92 "Hg10 mi
5:20 AM46 °FPassing clouds.12 mph82%29.92 "HgN/A
4:50 AM48 °FPassing clouds.9 mph76%29.92 "HgN/A
4:20 AM48 °FPassing clouds.9 mph76%29.92 "HgN/A
3:50 AM48 °FPassing clouds.10 mph76%29.95 "HgN/A
3:20 AM48 °FPassing clouds.9 mph76%29.95 "HgN/A
2:50 AM48 °FPassing clouds.9 mph76%29.95 "HgN/A
2:20 AM48 °FPassing clouds.9 mph76%29.95 "HgN/A
1:50 AM48 °FPassing clouds.8 mph76%29.95 "HgN/A
1:20 AM48 °FPassing clouds.8 mph76%29.98 "HgN/A
12:50 AM52 °FPassing clouds.8 mph67%29.98 "HgN/A
11:50 PM
Thu, May 28
52 °FPassing clouds.7 mph67%29.98 "HgN/A
11:20 PM54 °FPassing clouds.7 mph67%29.98 "HgN/A
10:50 PM54 °FPassing clouds.9 mph67%29.98 "HgN/A
10:20 PM55 °FPassing clouds.7 mph67%29.98 "HgN/A
9:50 PM55 °FPassing clouds.10 mph67%29.98 "HgN/A
9:20 PM57 °FPassing clouds.9 mph63%29.98 "HgN/A
8:50 PM57 °FPassing clouds.12 mph63%29.95 "HgN/A
8:20 PM59 °FPassing clouds.13 mph59%29.95 "HgN/A
7:50 PM59 °FPassing clouds.15 mph59%29.95 "HgN/A
7:20 PM61 °FPassing clouds.15 mph55%29.95 "HgN/A
6:50 PM61 °FPassing clouds.18 mph55%29.95 "HgN/A
6:20 PM61 °FScattered clouds.17 mph55%29.95 "HgN/A
5:50 PM61 °FScattered clouds.18 mph55%29.98 "HgN/A
5:20 PM61 °FPassing clouds.16 mph59%29.98 "HgN/A
4:50 PM61 °FPassing clouds.18 mph59%29.98 "HgN/A
4:20 PM61 °FPassing clouds.17 mph63%29.98 "HgN/A
3:50 PM61 °FPassing clouds.17 mph63%29.98 "HgN/A
3:20 PM59 °FBroken clouds.15 mph68%29.98 "HgN/A
2:50 PM57 °FSprinkles. Broken clouds.15 mph77%29.98 "HgN/A
2:20 PM59 °FScattered clouds.17 mph68%29.98 "HgN/A
1:50 PM61 °FScattered clouds.17 mph63%29.98 "HgN/A
1:20 PM59 °FBroken clouds.18 mph63%29.98 "HgN/A
12:50 PM57 °FBroken clouds.17 mph72%29.98 "HgN/A
12:20 PM61 °FPartly sunny.18 mph59%29.98 "HgN/A
11:50 AM61 °FPartly sunny.16 mph52%29.98 "HgN/A
11:20 AM59 °FBroken clouds.16 mph51%29.98 "HgN/A
10:50 AM59 °FScattered clouds.15 mph55%29.98 "HgN/A
10:20 AM57 °FPartly sunny.16 mph63%29.98 "HgN/A
9:50 AM57 °FPassing clouds.14 mph63%29.98 "HgN/A
9:20 AM57 °FLight rain. Passing clouds.15 mph72%29.98 "HgN/A
Weather by CustomWeather, © 2015

See weather overviewHow to use our weather pages